Time,TemperatureF,DewpointF,PressureIn,WindDirection,WindDirectionDegrees,WindSpeedMPH,WindSpeedGustMPH,Humidity,HourlyPrecipIn,Conditions,Clouds,dailyrainin,SolarRadiationWatts/m^2,SoftwareType,DateUTC
2013-11-09 00:21:00,50.0,13.0,-100.00,WNW,289,3.0,6.0,22,0.00,,,0.02,228.000000,,2013-11-09 00:21:00,
2013-11-09 00:32:00,50.0,13.0,-100.00,WNW,289,3.0,6.0,22,0.00,,,0.02,228.000000,,2013-11-09 00:32:00,
2013-11-09 02:22:00,39.0,14.0,-100.00,ESE,104,2.0,4.0,36,0.00,,,0.02,1.000000,,2013-11-09 02:22:00,
2013-11-09 02:32:00,39.0,14.0,-100.00,ESE,104,2.0,4.0,36,0.00,,,0.02,1.000000,,2013-11-09 02:32:00,
2013-11-09 02:42:00,39.0,14.0,-100.00,ESE,104,2.0,4.0,36,0.00,,,0.02,1.000000,,2013-11-09 02:42:00,
2013-11-09 02:52:00,39.0,14.0,-100.00,ESE,104,2.0,4.0,36,0.00,,,0.02,1.000000,,2013-11-09 02:52:00,
2013-11-09 03:22:00,36.0,16.0,-100.00,East,84,3.0,4.0,44,0.00,,,0.01,0.000000,,2013-11-09 03:22:00,
2013-11-09 03:34:00,36.0,16.0,-100.00,East,84,3.0,4.0,44,0.00,,,0.01,0.000000,,2013-11-09 03:34:00,
2013-11-09 03:44:00,36.0,16.0,-100.00,East,84,3.0,4.0,44,0.00,,,0.01,0.000000,,2013-11-09 03:44:00,
2013-11-09 03:54:00,36.0,16.0,-100.00,East,84,3.0,4.0,44,0.00,,,0.01,0.000000,,2013-11-09 03:54:00,
2013-11-09 04:23:00,34.0,19.0,-100.00,ENE,68,3.0,5.0,54,0.00,,,-99.99,0.000000,,2013-11-09 04:23:00,
2013-11-09 04:34:00,34.0,19.0,-100.00,ENE,68,3.0,5.0,54,0.00,,,-99.99,0.000000,,2013-11-09 04:34:00,
2013-11-09 04:42:00,34.0,19.0,-100.00,ENE,68,3.0,5.0,54,0.00,,,-99.99,0.000000,,2013-11-09 04:42:00,
2013-11-09 04:53:00,34.0,19.0,-100.00,ENE,68,3.0,5.0,54,0.00,,,-99.99,0.000000,,2013-11-09 04:53:00,
2013-11-09 05:22:00,30.0,18.0,-100.00,East,83,3.0,4.0,61,0.00,,,0.00,0.000000,,2013-11-09 05:22:00,
2013-11-09 05:34:00,30.0,18.0,-100.00,East,83,3.0,4.0,61,0.00,,,0.00,0.000000,,2013-11-09 05:34:00,
2013-11-09 05:43:00,30.0,18.0,-100.00,East,83,3.0,4.0,61,0.00,,,0.00,0.000000,,2013-11-09 05:43:00,
2013-11-09 05:53:00,30.0,18.0,-100.00,East,83,3.0,4.0,61,0.00,,,0.00,0.000000,,2013-11-09 05:53:00,
2013-11-09 06:22:00,29.0,19.0,-100.00,ENE,74,4.0,5.0,66,0.00,,,0.00,0.000000,,2013-11-09 06:22:00,
2013-11-09 06:33:00,29.0,19.0,-100.00,ENE,74,4.0,5.0,66,0.00,,,0.00,0.000000,,2013-11-09 06:33:00,
2013-11-09 06:43:00,29.0,19.0,-100.00,ENE,74,4.0,5.0,66,0.00,,,0.00,0.000000,,2013-11-09 06:43:00,
2013-11-09 06:54:00,29.0,19.0,-100.00,ENE,74,4.0,5.0,66,0.00,,,0.00,0.000000,,2013-11-09 06:54:00,
2013-11-09 07:21:00,28.0,18.0,-100.00,ENE,75,4.0,6.0,66,0.00,,,0.00,0.000000,,2013-11-09 07:21:00,
2013-11-09 07:33:00,28.0,18.0,-100.00,ENE,75,4.0,6.0,66,0.00,,,0.00,0.000000,,2013-11-09 07:33:00,
2013-11-09 07:42:00,28.0,18.0,-100.00,ENE,75,4.0,6.0,66,0.00,,,0.00,0.000000,,2013-11-09 07:42:00,
2013-11-09 07:52:00,28.0,18.0,-100.00,ENE,75,4.0,6.0,66,0.00,,,0.00,0.000000,,2013-11-09 07:52:00,
2013-11-09 08:21:00,27.0,19.0,-100.00,ENE,69,6.0,7.0,70,0.00,,,0.00,0.000000,,2013-11-09 08:21:00,
2013-11-09 08:32:00,27.0,19.0,-100.00,ENE,69,6.0,7.0,70,0.00,,,0.00,0.000000,,2013-11-09 08:32:00,
2013-11-09 08:42:00,27.0,19.0,-100.00,ENE,69,6.0,7.0,70,0.00,,,0.00,0.000000,,2013-11-09 08:42:00,
2013-11-09 08:52:00,27.0,19.0,-100.00,ENE,69,6.0,7.0,70,0.00,,,0.00,0.000000,,2013-11-09 08:52:00,
2013-11-09 09:21:00,26.0,19.0,-100.00,ENE,74,5.0,7.0,75,0.00,,,0.00,0.000000,,2013-11-09 09:21:00,
2013-11-09 09:33:00,26.0,19.0,-100.00,ENE,74,5.0,7.0,75,0.00,,,0.00,0.000000,,2013-11-09 09:33:00,
2013-11-09 09:42:00,26.0,19.0,-100.00,ENE,74,5.0,7.0,75,0.00,,,0.00,0.000000,,2013-11-09 09:42:00,
2013-11-09 09:53:00,26.0,19.0,-100.00,ENE,74,5.0,7.0,75,0.00,,,0.00,0.000000,,2013-11-09 09:53:00,
2013-11-09 10:23:00,26.0,19.0,-100.00,ESE,102,4.0,6.0,73,0.00,,,0.00,0.000000,,2013-11-09 10:23:00,
2013-11-09 10:32:00,26.0,19.0,-100.00,ESE,102,4.0,6.0,73,0.00,,,0.00,0.000000,,2013-11-09 10:32:00,
2013-11-09 10:42:00,26.0,19.0,-100.00,ESE,102,4.0,6.0,73,0.00,,,0.00,0.000000,,2013-11-09 10:42:00,
2013-11-09 10:52:00,26.0,19.0,-100.00,ESE,102,4.0,6.0,73,0.00,,,0.00,0.000000,,2013-11-09 10:52:00,
2013-11-09 11:22:00,25.0,19.0,-100.00,NE,51,5.0,7.0,76,0.00,,,0.00,0.000000,,2013-11-09 11:22:00,
2013-11-09 11:33:00,25.0,19.0,-100.00,NE,51,5.0,7.0,76,0.00,,,0.00,0.000000,,2013-11-09 11:33:00,
2013-11-09 11:42:00,25.0,19.0,-100.00,NE,51,5.0,7.0,76,0.00,,,0.00,0.000000,,2013-11-09 11:42:00,
2013-11-09 11:52:00,25.0,19.0,-100.00,NE,51,5.0,7.0,76,0.00,,,0.00,0.000000,,2013-11-09 11:52:00,
2013-11-09 12:21:00,24.0,18.0,-100.00,East,90,5.0,6.0,79,0.00,,,0.00,0.000000,,2013-11-09 12:21:00,
2013-11-09 12:32:00,24.0,18.0,-100.00,East,90,5.0,6.0,79,0.00,,,0.00,0.000000,,2013-11-09 12:32:00,
2013-11-09 12:42:00,24.0,18.0,-100.00,East,90,5.0,6.0,79,0.00,,,0.00,0.000000,,2013-11-09 12:42:00,
2013-11-09 12:52:00,24.0,18.0,-100.00,East,90,5.0,6.0,79,0.00,,,0.00,0.000000,,2013-11-09 12:52:00,
2013-11-09 13:21:00,23.0,18.0,-100.00,East,85,3.0,7.0,81,0.00,,,-99.99,0.000000,,2013-11-09 13:21:00,
2013-11-09 13:32:00,23.0,18.0,-100.00,East,85,3.0,7.0,81,0.00,,,-99.99,0.000000,,2013-11-09 13:32:00,
2013-11-09 13:42:00,23.0,18.0,-100.00,East,85,3.0,7.0,81,0.00,,,-99.99,0.000000,,2013-11-09 13:42:00,
2013-11-09 13:52:00,23.0,18.0,-100.00,East,85,3.0,7.0,81,0.00,,,-99.99,0.000000,,2013-11-09 13:52:00,
2013-11-09 14:22:00,25.0,20.0,-100.00,ENE,77,5.0,7.0,80,0.00,,,0.00,0.000000,,2013-11-09 14:22:00,
2013-11-09 14:32:00,25.0,20.0,-100.00,ENE,77,5.0,7.0,80,0.00,,,0.00,0.000000,,2013-11-09 14:32:00,
2013-11-09 14:42:00,25.0,20.0,-100.00,ENE,77,5.0,7.0,80,0.00,,,0.00,0.000000,,2013-11-09 14:42:00,
2013-11-09 14:52:00,25.0,20.0,-100.00,ENE,77,5.0,7.0,80,0.00,,,0.00,0.000000,,2013-11-09 14:52:00,
2013-11-09 15:21:00,23.0,19.0,-100.00,East,88,3.0,6.0,83,0.00,,,0.00,1.000000,,2013-11-09 15:21:00,
2013-11-09 15:33:00,23.0,19.0,-100.00,East,88,3.0,6.0,83,0.00,,,0.00,1.000000,,2013-11-09 15:33:00,
2013-11-09 15:43:00,23.0,19.0,-100.00,East,88,3.0,6.0,83,0.00,,,0.00,1.000000,,2013-11-09 15:43:00,
2013-11-09 15:53:00,23.0,19.0,-100.00,East,88,3.0,6.0,83,0.00,,,0.00,1.000000,,2013-11-09 15:53:00,
2013-11-09 16:23:00,26.0,20.0,-100.00,East,79,4.0,6.0,78,0.00,,,0.00,31.000000,,2013-11-09 16:23:00,
2013-11-09 16:33:00,26.0,20.0,-100.00,East,79,4.0,6.0,78,0.00,,,0.00,31.000000,,2013-11-09 16:33:00,
2013-11-09 16:43:00,26.0,20.0,-100.00,East,79,4.0,6.0,78,0.00,,,0.00,31.000000,,2013-11-09 16:43:00,
2013-11-09 16:52:00,26.0,20.0,-100.00,East,79,4.0,6.0,78,0.00,,,0.00,31.000000,,2013-11-09 16:52:00,
2013-11-09 17:23:00,35.0,23.0,-100.00,East,79,3.0,6.0,61,0.00,,,0.00,197.000000,,2013-11-09 17:23:00,
2013-11-09 17:34:00,35.0,23.0,-100.00,East,79,3.0,6.0,61,0.00,,,0.00,197.000000,,2013-11-09 17:34:00,
2013-11-09 17:43:00,35.0,23.0,-100.00,East,79,3.0,6.0,61,0.00,,,0.00,197.000000,,2013-11-09 17:43:00,
2013-11-09 17:52:00,35.0,23.0,-100.00,East,79,3.0,6.0,61,0.00,,,0.00,197.000000,,2013-11-09 17:52:00,
2013-11-09 18:23:00,39.0,24.0,-100.00,NE,55,2.0,4.0,55,0.00,,,0.00,135.000000,,2013-11-09 18:23:00,
2013-11-09 18:32:00,39.0,24.0,-100.00,NE,55,2.0,4.0,55,0.00,,,0.00,135.000000,,2013-11-09 18:32:00,
2013-11-09 18:42:00,39.0,24.0,-100.00,NE,55,2.0,4.0,55,0.00,,,0.00,135.000000,,2013-11-09 18:42:00,
2013-11-09 18:52:00,39.0,24.0,-100.00,NE,55,2.0,4.0,55,0.00,,,0.00,135.000000,,2013-11-09 18:52:00,
2013-11-09 19:23:00,46.0,27.0,-100.00,West,274,3.0,6.0,48,0.00,,,0.00,436.000000,,2013-11-09 19:23:00,
2013-11-09 19:32:00,46.0,27.0,-100.00,West,274,3.0,6.0,48,0.00,,,0.00,436.000000,,2013-11-09 19:32:00,
2013-11-09 19:42:00,46.0,27.0,-100.00,West,274,3.0,6.0,48,0.00,,,0.00,436.000000,,2013-11-09 19:42:00,
2013-11-09 19:52:00,46.0,27.0,-100.00,West,274,3.0,6.0,48,0.00,,,0.00,436.000000,,2013-11-09 19:52:00,
2013-11-09 20:22:00,50.0,29.0,-100.00,SW,220,4.0,6.0,44,0.00,,,0.00,531.000000,,2013-11-09 20:22:00,
2013-11-09 20:32:00,50.0,29.0,-100.00,SW,220,4.0,6.0,44,0.00,,,0.00,531.000000,,2013-11-09 20:32:00,
2013-11-09 20:42:00,50.0,29.0,-100.00,SW,220,4.0,6.0,44,0.00,,,0.00,531.000000,,2013-11-09 20:42:00,
2013-11-09 20:52:00,50.0,29.0,-100.00,SW,220,4.0,6.0,44,0.00,,,0.00,531.000000,,2013-11-09 20:52:00,
2013-11-09 21:22:00,52.0,31.0,-100.00,West,271,4.0,7.0,44,0.00,,,0.00,492.000000,,2013-11-09 21:22:00,
2013-11-09 21:34:00,52.0,31.0,-100.00,West,271,4.0,7.0,44,0.00,,,0.00,492.000000,,2013-11-09 21:34:00,
2013-11-09 21:44:00,52.0,31.0,-100.00,West,271,4.0,7.0,44,0.00,,,0.00,492.000000,,2013-11-09 21:44:00,
2013-11-09 21:53:00,52.0,31.0,-100.00,West,271,4.0,7.0,44,0.00,,,0.00,492.000000,,2013-11-09 21:53:00,
2013-11-09 22:24:00,57.0,32.0,-100.00,WSW,242,4.0,9.0,39,0.00,,,0.00,492.000000,,2013-11-09 22:24:00,
2013-11-09 22:33:00,57.0,32.0,-100.00,WSW,242,4.0,9.0,39,0.00,,,0.00,492.000000,,2013-11-09 22:33:00,
2013-11-09 22:43:00,57.0,32.0,-100.00,WSW,242,4.0,9.0,39,0.00,,,0.00,492.000000,,2013-11-09 22:43:00,
2013-11-09 22:54:00,57.0,32.0,-100.00,WSW,242,4.0,9.0,39,0.00,,,0.00,492.000000,,2013-11-09 22:54:00,
2013-11-09 23:22:00,58.0,31.0,-100.00,West,281,3.0,7.0,36,0.00,,,0.00,378.000000,,2013-11-09 23:22:00,
2013-11-09 23:33:00,58.0,31.0,-100.00,West,281,3.0,7.0,36,0.00,,,0.00,378.000000,,2013-11-09 23:33:00,
2013-11-09 23:42:00,58.0,31.0,-100.00,West,281,3.0,7.0,36,0.00,,,0.00,378.000000,,2013-11-09 23:42:00,
2013-11-09 23:53:00,58.0,31.0,-100.00,West,281,3.0,7.0,36,0.00,,,0.00,378.000000,,2013-11-09 23:53:00,